Weather History for Winchester, VA

Change the Weather History Date:

Sunday, April 21, 2013

  Actual Average Record
Temperature  
Mean Temperature 42 °F -  
Max Temperature 51 °F 66 °F 120 °F (1997)
Min Temperature 33 °F 43 °F 33 °F (1983)
Degree Days  
Heating Degree Days 23    
Moisture  
Dew Point 28 °F    
Average Humidity 59    
Maximum Humidity 81    
Minimum Humidity 40    
Precipitation  
Precipitation 0.00 in - - ()
Sea Level Pressure  
Sea Level Pressure 30.51 in    
Wind  
Wind Speed 3 mph (NE)    
Max Wind Speed 10 mph    
Max Gust Speed 16 mph    
Visibility 10 miles    
Events      
Averages and records for this station are not official NWS values.
T = Trace of Precipitation, MM = Missing Value Source: NWS Daily Summary

Daily Weather History Graph

Daily Weather History Graph

Search for Another Location

Airport:

Trip Planner

Search our weather history database for the weather conditions in past years. The results will help you decide how hot, cold, wet, or windy it might be!

Date:

Astronomy

Apr. 21, 2013 Rise Set
Actual Time 6:26 AM EDT 7:56 PM EDT
Civil Twilight 5:58 AM EDT 8:24 PM EDT
Nautical Twilight 5:25 AM EDT 8:58 PM EDT
Astronomical Twilight 4:49 AM EDT 9:33 PM EDT
Moon 3:41 PM EDT (4/21) 3:46 AM EDT (4/21)
Length of Visible Light 14h 25m
Length of Day
13h 29m
Waxing Gibbous, 79% of the Moon is Illuminated
Apr 21
Waxing Gibbous
Apr 25
Full
May 2
Last Quarter
May 9
New
May 18
First Quarter

Hourly Weather History & Observations

Time (EDT) Temp. Windchill Dew Point Humidity Pressure Visibility Wind Dir Wind Speed Gust Speed Precip Events Conditions
12:15 AM 41.0 °F - 28.4 °F 61% 30.36 in 10.0 mi Calm Calm - N/A   Clear
12:35 AM 41.0 °F 38.0 °F 28.4 °F 61% 30.37 in 10.0 mi North 4.6 mph - N/A   Scattered Clouds
12:55 AM 39.2 °F 37.0 °F 28.4 °F 65% 30.37 in 10.0 mi North 3.5 mph - N/A   Scattered Clouds
1:15 AM 41.0 °F - 28.4 °F 61% 30.38 in 10.0 mi Calm Calm - N/A   Clear
1:35 AM 35.6 °F - 28.4 °F 75% 30.38 in 10.0 mi Calm Calm - N/A   Clear
1:55 AM 35.6 °F - 30.2 °F 81% 30.39 in 10.0 mi Calm Calm - N/A   Clear
2:15 AM 33.8 °F - 28.4 °F 81% 30.39 in 10.0 mi Calm Calm - N/A   Scattered Clouds
2:35 AM 35.6 °F - 30.2 °F 81% 30.40 in 10.0 mi Calm Calm - N/A   Clear
5:15 AM 35.6 °F - 26.6 °F 70% 30.46 in 10.0 mi Calm Calm - N/A   Clear
5:35 AM 35.6 °F - 26.6 °F 70% 30.47 in 10.0 mi Calm Calm - N/A   Mostly Cloudy
5:55 AM 35.6 °F 32.8 °F 26.6 °F 70% 30.48 in 10.0 mi North 3.5 mph - N/A   Mostly Cloudy
6:15 AM 33.8 °F 28.6 °F 26.6 °F 75% 30.49 in 10.0 mi North 5.8 mph - N/A   Clear
6:35 AM 33.8 °F 28.6 °F 26.6 °F 75% 30.50 in 10.0 mi North 5.8 mph - N/A   Clear
6:55 AM 33.8 °F - 26.6 °F 75% 30.52 in 10.0 mi Calm Calm - N/A   Clear
7:15 AM 33.8 °F 30.8 °F 26.6 °F 75% 30.53 in 10.0 mi NNW 3.5 mph - N/A   Clear
7:55 AM 35.6 °F 31.7 °F 26.6 °F 70% 30.55 in 10.0 mi North 4.6 mph - N/A   Clear
8:15 AM 37.4 °F 32.1 °F 24.8 °F 60% 30.56 in 10.0 mi NNE 6.9 mph - N/A   Clear
8:35 AM 39.2 °F 33.6 °F 26.6 °F 61% 30.57 in 10.0 mi NNE 8.1 mph - N/A   Clear
8:55 AM 39.2 °F 35.9 °F 24.8 °F 56% 30.57 in 10.0 mi NNE 4.6 mph - N/A   Clear
9:15 AM 39.2 °F 34.2 °F 23.0 °F 52% 30.58 in 10.0 mi NE 6.9 mph - N/A   Clear
9:35 AM 41.0 °F 35.2 °F 23.0 °F 49% 30.58 in 10.0 mi NNE 9.2 mph - N/A   Scattered Clouds
10:15 AM 41.0 °F 35.8 °F 23.0 °F 49% 30.58 in 10.0 mi NE 8.1 mph - N/A   Scattered Clouds
10:35 AM 42.8 °F 38.0 °F 24.8 °F 49% 30.58 in 10.0 mi NE 8.1 mph - N/A   Clear
10:55 AM 42.8 °F 39.3 °F 26.6 °F 53% 30.58 in 10.0 mi North 5.8 mph - N/A   Clear
11:15 AM 42.8 °F 37.0 °F 26.6 °F 53% 30.58 in 10.0 mi NNE 10.4 mph 16.1 mph N/A   Clear
11:35 AM 44.6 °F 42.2 °F 26.6 °F 49% 30.58 in 10.0 mi North 4.6 mph - N/A   Scattered Clouds
11:55 AM 44.6 °F 40.7 °F 26.6 °F 49% 30.58 in 10.0 mi NNE 6.9 mph - N/A   Clear
12:15 PM 44.6 °F 42.2 °F 26.6 °F 49% 30.58 in 10.0 mi NE 4.6 mph - N/A   Clear
12:35 PM 46.4 °F 44.3 °F 28.4 °F 50% 30.57 in 10.0 mi NNE 4.6 mph - N/A   Clear
12:55 PM 46.4 °F 43.5 °F 28.4 °F 50% 30.56 in 10.0 mi NE 5.8 mph - N/A   Clear
1:15 PM 46.4 °F 44.3 °F 28.4 °F 50% 30.55 in 10.0 mi NNW 4.6 mph - N/A   Scattered Clouds
1:35 PM 48.2 °F - 28.4 °F 46% 30.54 in 10.0 mi ENE 4.6 mph - N/A   Scattered Clouds
1:55 PM 50.0 °F - 28.4 °F 43% 30.54 in 10.0 mi East 6.9 mph - N/A   Clear
2:15 PM 48.2 °F - 26.6 °F 43% 30.54 in 10.0 mi NNW 5.8 mph - N/A   Scattered Clouds
2:35 PM 50.0 °F - 26.6 °F 40% 30.53 in 10.0 mi Calm Calm - N/A   Scattered Clouds
2:55 PM 50.0 °F - 26.6 °F 40% 30.53 in 10.0 mi Calm Calm - N/A   Scattered Clouds
3:15 PM 51.8 °F - 30.2 °F 44% 30.52 in 10.0 mi SE 6.9 mph - N/A   Scattered Clouds
3:35 PM 51.8 °F - 30.2 °F 44% 30.51 in 10.0 mi North 5.8 mph - N/A   Scattered Clouds
3:55 PM 51.8 °F - 30.2 °F 44% 30.50 in 10.0 mi East 6.9 mph - N/A   Scattered Clouds
4:15 PM 51.8 °F - 30.2 °F 44% 30.50 in 10.0 mi North 5.8 mph - N/A   Scattered Clouds
4:35 PM 51.8 °F - 28.4 °F 41% 30.50 in 10.0 mi ENE 3.5 mph - N/A   Scattered Clouds
4:55 PM 50.0 °F - 28.4 °F 43% 30.50 in 10.0 mi East 5.8 mph - N/A   Clear
5:15 PM 50.0 °F - 30.2 °F 47% 30.50 in 10.0 mi ESE 6.9 mph - N/A   Clear
5:55 PM 50.0 °F - 28.4 °F 43% 30.50 in 10.0 mi East 4.6 mph - N/A   Clear
6:15 PM 50.0 °F - 26.6 °F 40% 30.50 in 10.0 mi East 5.8 mph - N/A   Scattered Clouds
6:35 PM 50.0 °F - 28.4 °F 43% 30.50 in 10.0 mi East 5.8 mph - N/A   Mostly Cloudy
6:55 PM 50.0 °F - 28.4 °F 43% 30.50 in 10.0 mi East 3.5 mph - N/A   Scattered Clouds
7:15 PM 48.2 °F - 28.4 °F 46% 30.50 in 10.0 mi East 3.5 mph - N/A   Clear
7:35 PM 46.4 °F 42.9 °F 28.4 °F 50% 30.51 in 10.0 mi East 6.9 mph - N/A   Clear
7:55 PM 46.4 °F 45.2 °F 28.4 °F 50% 30.51 in 10.0 mi East 3.5 mph - N/A   Scattered Clouds
8:15 PM 44.6 °F 43.1 °F 30.2 °F 57% 30.52 in 10.0 mi East 3.5 mph - N/A   Clear
8:35 PM 42.8 °F 41.1 °F 30.2 °F 61% 30.52 in 10.0 mi East 3.5 mph - N/A   Clear
8:55 PM 42.8 °F - 30.2 °F 61% 30.53 in 10.0 mi Calm Calm - N/A   Clear
9:15 PM 41.0 °F - 32.0 °F 70% 30.53 in 10.0 mi Calm Calm - N/A   Scattered Clouds
9:35 PM 37.4 °F - 32.0 °F 81% 30.53 in 10.0 mi Calm Calm - N/A   Scattered Clouds
9:55 PM 37.4 °F - 32.0 °F 81% 30.54 in 10.0 mi Calm Calm - N/A   Clear
10:15 PM 37.4 °F - 32.0 °F 81% 30.54 in 10.0 mi Calm Calm - N/A   Clear
10:35 PM 37.4 °F - 32.0 °F 81% 30.54 in 10.0 mi Calm Calm - N/A   Clear
10:55 PM 37.4 °F - 30.2 °F 75% 30.55 in 10.0 mi Calm Calm - N/A   Scattered Clouds
11:15 PM 37.4 °F - 32.0 °F 81% 30.55 in 10.0 mi Calm Calm - N/A   Scattered Clouds
11:35 PM 35.6 °F 32.8 °F 30.2 °F 81% 30.55 in 10.0 mi East 3.5 mph - N/A   Clear
11:55 PM 37.4 °F - 30.2 °F 75% 30.55 in 10.0 mi Calm Calm - N/A   Clear